Moorhead, MN

12:02 AM CDT on July 26, 2017 (GMT -0500)
Moorhead Municipal

Weather History for KJKJ - February, 2013

Change the Weather History Date:

Tuesday, February 12, 2013

  Actual Average (KFAR) Record (KFAR)
Temperature  
Mean Temperature 18 °F -  
Max Temperature 26 °F 20 °F 43 °F (1935)
Min Temperature 10 °F 2 °F -30 °F (1905)
Degree Days  
Heating Degree Days 47    
Moisture  
Dew Point 17 °F    
Average Humidity 93    
Maximum Humidity 100    
Minimum Humidity 80    
Precipitation  
Precipitation 0.02 in - - ()
Sea Level Pressure  
Sea Level Pressure 29.82 in    
Wind  
Wind Speed 8 mph (SSW)    
Max Wind Speed 13 mph    
Max Gust Speed -    
Visibility 10 miles    
Events Fog    
Averages and records for this station are not official NWS values.
T = Trace of Precipitation, MM = Missing Value Source: NWS Daily Summary

Daily Weather History Graph

Daily Weather History Graph

Search for Another Location

Airport or City:

Trip Planner

Search our weather history database for the weather conditions in past years. The results will help you decide how hot, cold, wet, or windy it might be!

Date:

Astronomy

Feb. 12, 2013 Rise Set
Actual Time 7:35 AM CST 5:47 PM CST
Civil Twilight 7:03 AM CST 6:18 PM CST
Nautical Twilight 6:28 AM CST 6:54 PM CST
Astronomical Twilight 5:52 AM CST 7:29 PM CST
Moon 8:19 AM CST (2/12) 9:04 PM CST (2/12)
Length of Visible Light 11h 15m
Length of Day
10h 12m
Waxing Crescent, 7% of the Moon is Illuminated
Feb 12
Waxing Crescent
Feb 17
First Quarter
Feb 25
Full
Mar 4
Last Quarter
Mar 11
New

Hourly Weather History & Observations

Time (CST) Temp. Windchill Dew Point Humidity Pressure Visibility Wind Dir Wind Speed Gust Speed Precip Events Conditions
12:15 AM 19.4 °F 10.4 °F 17.6 °F 93% 29.93 in 10.0 mi South 6.9 mph - N/A   Mostly Cloudy
12:35 AM 19.4 °F 8.6 °F 17.6 °F 93% 29.93 in 10.0 mi South 9.2 mph - N/A   Scattered Clouds
12:54 AM 19.4 °F 8.6 °F 17.6 °F 93% 29.92 in 10.0 mi South 9.2 mph - N/A   Scattered Clouds
1:15 AM 17.6 °F 6.4 °F 17.6 °F 100% 29.91 in 10.0 mi South 9.2 mph - N/A   Clear
1:34 AM 17.6 °F 6.4 °F 15.8 °F 93% 29.90 in 10.0 mi South 9.2 mph - N/A   Clear
1:55 AM 17.6 °F 5.7 °F 15.8 °F 93% 29.89 in 10.0 mi South 10.4 mph - N/A   Clear
2:15 AM 17.6 °F 5.0 °F 15.8 °F 93% 29.88 in 10.0 mi South 11.5 mph - N/A   Clear
2:35 AM 15.8 °F 3.4 °F 15.8 °F 100% 29.88 in 10.0 mi South 10.4 mph - N/A   Clear
2:55 AM 15.8 °F 2.7 °F 15.8 °F 100% 29.87 in 10.0 mi South 11.5 mph - N/A   Clear
3:15 AM 15.8 °F 2.7 °F 15.8 °F 100% 29.85 in 10.0 mi South 11.5 mph - N/A   Scattered Clouds
3:34 AM 15.8 °F 3.4 °F 14.0 °F 93% 29.84 in 10.0 mi South 10.4 mph - N/A   Scattered Clouds
3:55 AM 15.8 °F 2.7 °F 14.0 °F 93% 29.84 in 10.0 mi South 11.5 mph - N/A   Clear
4:15 AM 15.8 °F 2.1 °F 15.8 °F 100% 29.83 in 10.0 mi South 12.7 mph - N/A   Scattered Clouds
4:34 AM 15.8 °F 3.4 °F 15.8 °F 100% 29.83 in 10.0 mi South 10.4 mph - N/A   Scattered Clouds
4:55 AM 15.8 °F 4.2 °F 15.8 °F 100% 29.83 in 10.0 mi South 9.2 mph - N/A   Scattered Clouds
5:15 AM 15.8 °F 4.2 °F 14.0 °F 93% 29.82 in 10.0 mi South 9.2 mph - N/A   Mostly Cloudy
5:35 AM 15.8 °F 3.4 °F 14.0 °F 93% 29.83 in 10.0 mi South 10.4 mph - N/A   Scattered Clouds
5:55 AM 15.8 °F 4.2 °F 14.0 °F 93% 29.82 in 10.0 mi South 9.2 mph - N/A   Clear
6:14 AM 15.8 °F 3.4 °F 14.0 °F 93% 29.82 in 10.0 mi South 10.4 mph - N/A   Clear
6:35 AM 14.0 °F 3.9 °F 12.2 °F 93% 29.82 in 10.0 mi South 6.9 mph - N/A   Clear
6:55 AM 14.0 °F 3.9 °F 12.2 °F 93% 29.82 in 10.0 mi South 6.9 mph - N/A   Clear
7:15 AM 14.0 °F 2.9 °F 12.2 °F 93% 29.82 in 10.0 mi South 8.1 mph - N/A   Clear
7:35 AM 12.2 °F 0.7 °F 12.2 °F 100% 29.82 in 10.0 mi South 8.1 mph - N/A   Clear
7:55 AM 12.2 °F 1.7 °F 10.4 °F 92% 29.82 in 10.0 mi South 6.9 mph - N/A   Clear
8:14 AM 10.4 °F -0.4 °F 10.4 °F 100% 29.82 in 0.5 mi South 6.9 mph - N/A Fog Light Freezing Fog
8:35 AM 14.0 °F 3.9 °F 12.2 °F 93% 29.83 in 10.0 mi South 6.9 mph - N/A   Clear
8:54 AM 14.0 °F 3.9 °F 12.2 °F 93% 29.83 in 10.0 mi South 6.9 mph - N/A   Clear
9:15 AM 14.0 °F 2.9 °F 12.2 °F 93% 29.83 in 10.0 mi SSW 8.1 mph - N/A   Clear
9:35 AM 14.0 °F 3.9 °F 12.2 °F 93% 29.82 in 10.0 mi SSW 6.9 mph - N/A   Clear
9:54 AM 12.2 °F 1.7 °F 10.4 °F 92% 29.82 in 10.0 mi SSW 6.9 mph - N/A   Clear
10:15 AM 12.2 °F 1.7 °F 10.4 °F 92% 29.82 in 10.0 mi SSW 6.9 mph - N/A   Clear
10:35 AM 14.0 °F 3.9 °F 12.2 °F 93% 29.82 in 10.0 mi SSW 6.9 mph - N/A   Clear
10:54 AM 15.8 °F 6.1 °F 12.2 °F 86% 29.82 in 10.0 mi SSW 6.9 mph - N/A   Clear
11:15 AM 17.6 °F 8.2 °F 15.8 °F 93% 29.82 in 10.0 mi SW 6.9 mph - N/A   Clear
11:35 AM 19.4 °F 10.4 °F 15.8 °F 86% 29.83 in 10.0 mi WSW 6.9 mph - N/A   Clear
11:54 AM 21.2 °F 11.7 °F 17.6 °F 86% 29.84 in 10.0 mi West 8.1 mph - N/A   Clear
12:15 PM 21.2 °F 11.7 °F 17.6 °F 86% 29.84 in 7.0 mi West 8.1 mph - N/A   Clear
12:34 PM 23.0 °F 15.8 °F 19.4 °F 86% 29.84 in 10.0 mi West 5.8 mph - N/A   Clear
12:55 PM 23.0 °F 18.4 °F 19.4 °F 86% 29.82 in 10.0 mi WSW 3.5 mph - 0.01 in   Clear
1:14 PM 23.0 °F 17.0 °F 19.4 °F 86% 29.82 in 10.0 mi SW 4.6 mph - N/A   Clear
1:35 PM 23.0 °F 15.8 °F 19.4 °F 86% 29.82 in 10.0 mi SW 5.8 mph - N/A   Clear
1:55 PM 24.8 °F 17.9 °F 19.4 °F 80% 29.81 in 10.0 mi SW 5.8 mph - N/A   Clear
2:14 PM 24.8 °F 16.9 °F 21.2 °F 86% 29.81 in 10.0 mi SW 6.9 mph - N/A   Clear
2:35 PM 24.8 °F 16.1 °F 21.2 °F 86% 29.81 in 10.0 mi SW 8.1 mph - N/A   Scattered Clouds
2:55 PM 24.8 °F 16.9 °F 21.2 °F 86% 29.81 in 10.0 mi SW 6.9 mph - N/A   Mostly Cloudy
3:14 PM 24.8 °F 16.9 °F 21.2 °F 86% 29.80 in 10.0 mi SW 6.9 mph - N/A   Scattered Clouds
3:35 PM 26.6 °F 20.0 °F 21.2 °F 80% 29.80 in 10.0 mi SW 5.8 mph - N/A   Scattered Clouds
4:14 PM 26.6 °F 20.0 °F 23.0 °F 86% 29.81 in 10.0 mi SW 5.8 mph - N/A   Scattered Clouds
4:35 PM 26.6 °F 21.2 °F 23.0 °F 86% 29.81 in 10.0 mi SW 4.6 mph - N/A   Mostly Cloudy
4:55 PM 26.6 °F 19.1 °F 24.8 °F 93% 29.80 in 10.0 mi SSW 6.9 mph - N/A   Mostly Cloudy
5:14 PM 26.6 °F 22.6 °F 23.0 °F 86% 29.80 in 10.0 mi SSW 3.5 mph - N/A   Mostly Cloudy
5:35 PM 26.6 °F 22.6 °F 23.0 °F 86% 29.81 in 10.0 mi South 3.5 mph - N/A   Overcast
5:54 PM 26.6 °F 22.6 °F 23.0 °F 86% 29.81 in 10.0 mi South 3.5 mph - N/A   Mostly Cloudy
6:14 PM 24.8 °F 19.1 °F 21.2 °F 86% 29.81 in 10.0 mi South 4.6 mph - N/A   Scattered Clouds
6:35 PM 24.8 °F 19.1 °F 21.2 °F 86% 29.81 in 10.0 mi South 4.6 mph - N/A   Clear
6:54 PM 23.0 °F 14.7 °F 21.2 °F 93% 29.81 in 10.0 mi SSW 6.9 mph - 0.01 in   Scattered Clouds
7:14 PM 23.0 °F 18.4 °F 21.2 °F 93% 29.80 in 10.0 mi SSW 3.5 mph - N/A   Scattered Clouds
7:35 PM 21.2 °F 14.9 °F 21.2 °F 100% 29.80 in 10.0 mi SSW 4.6 mph - N/A   Clear
7:54 PM 19.4 °F 10.4 °F 19.4 °F 100% 29.80 in 10.0 mi SSW 6.9 mph - N/A   Mostly Cloudy
8:15 PM 21.2 °F 14.9 °F 19.4 °F 93% 29.80 in 10.0 mi South 4.6 mph - N/A   Mostly Cloudy
8:35 PM 21.2 °F 14.9 °F 21.2 °F 100% 29.79 in 10.0 mi South 4.6 mph - N/A   Overcast
8:54 PM 21.2 °F 13.6 °F 21.2 °F 100% 29.80 in 10.0 mi SSW 5.8 mph - N/A   Overcast
9:15 PM 21.2 °F 14.9 °F 21.2 °F 100% 29.80 in 10.0 mi SSW 4.6 mph - N/A   Overcast
9:35 PM 21.2 °F 14.9 °F 21.2 °F 100% 29.79 in 10.0 mi SSW 4.6 mph - N/A   Mostly Cloudy
9:55 PM 21.2 °F 14.9 °F 21.2 °F 100% 29.79 in 10.0 mi SSW 4.6 mph - N/A   Mostly Cloudy
10:15 PM 21.2 °F 14.9 °F 21.2 °F 100% 29.78 in 10.0 mi South 4.6 mph - N/A   Overcast
10:34 PM 21.2 °F 13.6 °F 21.2 °F 100% 29.77 in 10.0 mi South 5.8 mph - N/A   Overcast
10:55 PM 19.4 °F 14.3 °F 19.4 °F 100% 29.77 in 10.0 mi South 3.5 mph - N/A   Overcast
11:15 PM 19.4 °F 14.3 °F 19.4 °F 100% 29.76 in 10.0 mi South 3.5 mph - N/A   Overcast
11:34 PM 19.4 °F 11.5 °F 19.4 °F 100% 29.76 in 10.0 mi SSE 5.8 mph - N/A   Overcast
11:55 PM 19.4 °F 11.5 °F 19.4 °F 100% 29.76 in 10.0 mi South 5.8 mph - N/A   Overcast